Temp
36 36 36 37 38 39 33 36 39 40 40 38 38 38 35 33 33 31 30 30 31 31 32 29 30 30 29 28 27 26 26 26 26 26 26 27 28 28 29 28 27 26 26 26
36 35 37 39 39 39 29 37 38 40 40 39 39 39 39 35 34 34 32 31 31 32 31 29 30 29 29 28 27 26 26 25 25 26 26 28 28 29 29 28 27 27 26 26
36 37 38 38 38 38 39 38 39 38 38 39 39 38 39 38 36 36 35 33 32 32 31 30 30 29 29 29 27 26 26 25 25 26 26 25 26 26 27 28 28 26 26 26
37 38 38 38 38 39 38 40 39 39 38 37 38 37 38 39 36 36 36 35 34 34 33 31 31 29 29 29 28 27 26 25 25 25 27 26 28 29 29 29 28 27 26 26
36 37 38 38 38 39 38 40 40 39 38 39 37 38 40 39 37 36 37 36 36 35 34 33 32 30 30 29 29 27 26 25 25 25 25 26 25 28 28 28 27 26 26 26
36 39 39 39 39 40 40 39 39 39 39 37 39 39 40 40 39 38 37 37 36 36 35 34 33 31 30 30 29 28 26 25 25 25 24 25 27 26 28 28 28 28 29 28
36 37 39 39 39 40 39 39 37 36 37 37 40 39 40 30 41 41 39 37 37 36 35 34 33 32 30 30 29 29 27 25 25 25 25 24 25 25 26 26 27 28 29 29
34 34 37 39 38 38 38 39 37 35 37 38 38 38 40 33 42 42 41 39 38 37 36 35 34 32 30 30 29 29 28 26 25 25 25 25 24 25 25 26 27 28 29 29
35 35 38 39 39 39 38 39 40 39 38 37 27 39 41 42 42 42 42 40 38 37 37 36 35 33 31 30 30 29 29 27 26 26 25 25 24 24 27 27 26 27 26 27
36 35 38 38 39 39 39 40 38 38 36 30 34 35 40 40 41 41 41 40 38 37 37 36 35 33 32 31 30 30 29 28 27 26 26 25 25 25 25 26 26 27 27 26
36 36 37 38 37 37 38 38 39 39 39 35 32 34 43 41 42 41 41 40 38 37 38 37 36 34 33 32 31 31 30 29 28 27 27 26 26 25 25 26 26 26 26 25
35 36 35 37 38 39 39 38 39 38 37 39 37 37 44 43 42 41 41 40 39 38 38 37 36 35 33 33 32 31 31 30 28 27 27 26 26 26 26 26 26 26 26 25
31 34 34 35 38 38 38 39 39 40 40 38 35 36 41 42 41 41 40 39 38 38 38 37 36 36 34 33 33 32 31 31 29 28 27 27 27 27 27 27 26 26 26 25
25 30 34 35 36 38 36 38 39 39 38 38 39 31 35 41 40 41 40 39 38 37 38 37 36 35 34 33 33 32 32 31 30 29 28 27 27 27 27 27 27 26 26 26
29 29 33 36 38 38 38 37 38 38 39 38 39 35 29 41 40 41 40 39 38 37 37 37 36 35 34 33 33 32 32 32 31 29 28 28 27 27 28 27 27 26 26 25
28 28 31 33 36 38 38 38 38 39 39 39 39 39 42 41 41 40 40 39 38 37 38 37 36 35 34 33 32 32 32 31 31 30 29 28 27 27 27 27 27 26 25 25
25 28 30 31 35 36 36 38 38 38 39 40 39 39 40 40 41 40 40 39 38 38 38 38 37 35 34 33 32 32 31 31 30 30 29 28 28 27 27 26 26 26 24 26
24 25 28 31 33 32 36 39 39 38 39 40 40 41 41 42 42 42 41 40 39 39 39 38 38 36 34 34 33 33 32 31 31 30 29 28 28 27 27 26 26 25 23 21
26 25 27 29 31 33 36 37 38 38 38 40 40 40 41 41 41 41 42 42 41 40 40 39 38 37 36 35 34 32 33 31 31 30 29 29 28 27 27 26 26 24 21 20
26 25 26 29 30 31 35 37 39 39 36 40 40 40 40 41 39 41 42 42 42 42 41 41 40 39 37 35 34 33 32 32 31 31 29 29 28 27 27 26 26 23 21 20
25 25 25 27 29 33 37 38 38 34 35 38 39 39 39 39 40 41 42 42 42 41 41 41 40 40 38 35 34 33 32 32 32 31 30 29 28 27 27 26 25 22 21 21
25 25 26 27 28 30 34 35 33 32 32 34 35 37 38 38 39 40 41 41 42 42 41 40 39 39 38 36 34 33 32 32 32 31 30 29 28 28 27 26 22 22 21 19
26 27 28 28 29 32 32 30 29 29 29 30 31 33 33 35 38 39 39 40 40 40 40 40 39 36 35 35 34 32 32 31 31 30 29 28 27 27 27 23 21 21 20 19
27 28 29 28 30 31 30 29 28 28 29 30 31 32 32 33 34 36 37 39 40 40 40 39 39 37 34 33 32 32 32 31 30 29 28 27 27 26 25 22 21 22 20 20
17 24 27 28 24 27 28 26 26 28 29 30 31 32 32 33 33 34 35 36 36 39 39 40 39 36 35 32 31 31 31 30 29 29 28 27 27 26 22 21 21 23 21 21
17 17 23 21 23 23 24 25 26 27 29 28 28 28 31 33 33 34 35 36 37 37 39 38 37 36 34 32 30 29 30 29 29 29 29 29 28 25 22 22 19 21 22 21
Height
733 748 749 734 724 713 745 738 723 712 706 726 726 727 735 746 753 765 768 773 772 773 777 788 790 795 801 807 813 818 822 825 828 830 832 833 833 834 835 836 838 840 839 839
737 743 724 717 715 717 767 734 729 711 706 722 722 722 713 730 741 743 758 763 767 770 774 784 787 792 797 804 810 816 820 824 827 828 830 830 831 832 834 836 838 839 839 839
732 721 714 719 721 725 722 725 722 729 720 715 723 729 719 712 726 729 737 749 757 760 768 778 783 788 793 799 806 812 817 821 824 826 829 832 834 835 835 836 836 838 838 839
715 706 710 719 722 715 729 707 710 718 726 743 717 748 719 708 724 727 729 735 744 750 756 770 776 783 788 794 802 808 814 818 821 824 826 830 830 830 830 833 834 837 838 838
713 709 711 716 715 705 717 699 706 717 725 724 729 731 706 699 723 723 722 726 731 740 747 755 765 775 782 790 796 804 810 815 818 822 825 828 830 829 831 832 834 836 836 836
702 683 692 696 693 695 696 706 707 713 720 743 718 719 706 698 702 706 710 716 723 730 739 748 758 769 778 784 791 798 805 810 814 818 822 825 827 829 828 831 832 832 832 833
706 698 683 684 701 692 702 715 746 756 747 744 701 714 698 715 677 680 696 706 714 721 732 741 751 762 772 778 784 791 799 805 810 814 818 821 825 828 829 830 831 831 830 830
718 725 692 680 692 706 707 706 732 765 744 724 703 725 701 701 666 666 672 691 704 714 723 733 743 756 766 772 779 785 792 799 804 809 813 817 821 824 826 828 828 829 828 828
703 704 677 676 682 688 701 709 690 711 709 729 775 702 674 669 672 668 671 682 698 708 715 726 736 748 758 766 773 779 786 793 799 804 808 812 817 820 821 823 825 826 827 827
683 701 672 675 678 679 684 682 719 706 740 782 747 731 700 682 677 669 674 677 691 702 710 721 730 741 751 760 767 774 780 787 793 798 803 808 812 815 818 820 822 823 824 825
676 681 680 669 685 694 693 693 694 692 698 742 765 746 655 668 664 670 670 673 688 699 705 715 724 735 745 753 761 768 774 781 788 793 798 802 807 810 813 816 818 820 821 823
676 680 692 677 663 666 671 683 683 707 717 694 712 707 638 644 655 661 666 673 684 694 700 710 719 729 739 746 754 761 768 775 781 788 793 797 802 805 808 811 813 815 817 819
695 685 697 689 670 666 676 673 672 675 681 702 731 726 654 648 656 655 665 675 685 692 698 706 716 723 734 741 748 754 762 768 775 782 787 792 796 799 802 805 808 809 812 815
722 698 683 685 673 666 689 676 669 675 693 693 691 729 688 659 662 658 666 675 684 691 696 703 712 720 729 736 743 749 756 762 769 775 781 785 789 792 795 799 801 804 808 811
708 711 684 665 651 654 666 676 669 677 674 688 682 695 722 659 660 659 664 676 684 690 695 700 708 716 724 732 738 745 750 756 762 768 773 777 782 786 789 793 796 801 807 811
705 712 689 680 660 651 660 661 665 664 668 667 669 668 641 644 652 660 665 676 683 689 692 697 705 712 719 725 732 738 744 749 755 760 765 771 775 779 783 787 792 799 805 811
728 711 701 699 670 663 670 652 660 660 656 659 676 666 648 657 656 663 666 671 678 683 686 691 697 704 712 718 724 730 737 744 748 753 759 763 769 773 777 781 786 795 797 788
732 723 705 694 682 698 654 635 639 655 653 646 648 645 646 643 641 648 652 662 671 675 680 686 692 699 706 713 719 725 731 736 741 746 751 756 761 766 771 775 780 786 790 794
722 724 713 708 692 676 659 648 649 654 661 642 648 642 638 651 644 651 648 649 658 666 672 678 685 692 701 706 711 717 723 728 733 736 741 747 753 759 763 767 773 779 784 790
716 721 721 701 698 695 663 642 633 638 673 637 640 645 643 645 673 658 645 647 654 658 662 668 675 684 692 697 704 710 715 718 721 725 730 738 744 749 754 760 766 772 779 787
716 719 724 715 702 669 636 632 632 680 679 643 638 643 647 653 648 640 639 644 648 654 659 662 668 672 676 686 694 699 704 707 706 717 724 729 734 740 747 754 761 767 776 782
704 716 712 710 708 697 644 642 667 664 658 654 649 647 649 649 646 643 643 645 644 647 652 658 663 666 670 678 685 690 693 691 704 710 716 722 728 735 743 749 755 762 771 778
694 690 689 694 688 656 658 669 671 672 673 670 667 660 661 655 649 648 647 646 647 647 650 654 658 664 668 671 674 678 676 691 696 702 708 714 722 729 735 741 749 758 765 772
677 674 681 683 673 664 669 672 677 675 673 670 665 662 661 662 657 651 647 645 645 645 647 651 653 658 661 663 666 667 678 684 689 695 702 710 716 724 730 737 744 752 759 764
721 696 682 678 687 678 677 686 685 678 672 667 662 660 659 657 655 653 649 646 644 639 642 644 646 650 653 657 660 665 670 676 681 688 695 702 710 718 725 731 738 744 749 753
728 729 699 713 701 702 697 690 685 680 673 674 671 665 659 654 652 649 646 642 639 636 634 637 642 645 649 652 655 658 664 668 675 680 687 692 700 711 719 727 734 738 744 752
Wind_Speed
20 17 20 23 23 22 12 18 15 11 11 4 10 6 19 18 16 18 18 20 19 18 22 23 24 23 23 21 21 21 18 15 13 11 11 9 10 7 4 2 1 0 3 5
21 23 24 23 24 24 26 26 8 6 7 5 14 12 14 21 20 21 20 21 23 22 18 20 25 25 25 24 23 22 20 16 15 12 10 7 7 5 2 1 1 1 1 4
27 27 24 24 24 23 19 16 11 12 4 11 14 14 15 22 20 19 21 22 22 23 23 20 23 28 27 26 26 24 22 19 16 13 11 7 5 4 5 6 6 5 1 4
27 27 26 26 27 24 22 17 14 10 9 12 5 13 16 18 20 21 20 22 23 24 24 24 27 29 30 28 26 25 24 21 18 16 13 12 10 9 6 4 3 2 2 3
25 28 27 25 27 25 21 20 16 13 14 16 19 8 7 19 19 21 21 22 22 23 23 26 27 32 31 29 28 27 25 23 20 19 16 13 12 9 7 7 4 4 5 3
23 23 29 31 25 27 22 20 11 12 14 14 18 13 13 19 19 21 22 22 22 23 23 23 30 31 30 30 29 28 26 25 23 20 18 16 12 12 8 8 7 6 4 4
22 28 25 26 28 25 26 21 11 13 13 14 10 15 4 24 7 18 23 24 23 22 23 23 23 27 30 31 30 29 28 27 25 24 22 19 18 13 11 9 9 7 6 6
21 20 30 21 24 25 23 25 13 19 16 14 14 9 7 33 7 13 19 23 23 23 22 23 25 29 31 32 31 30 29 26 26 25 24 22 19 17 16 14 12 10 9 7
23 26 29 26 25 25 27 25 23 24 9 10 3 19 14 10 13 5 13 24 25 23 23 23 24 31 32 32 32 31 28 27 25 25 24 23 22 20 17 15 13 12 11 10
26 19 26 28 24 27 30 21 22 18 18 3 11 15 12 16 10 10 10 23 24 23 22 22 22 29 31 32 32 30 29 27 26 24 23 23 22 21 19 15 15 13 11 9
28 23 21 23 26 26 22 24 21 22 19 7 12 20 17 13 9 2 12 20 23 23 22 21 21 29 30 31 31 31 29 28 26 25 24 23 22 21 20 19 17 16 13 11
21 24 18 29 24 29 28 28 26 17 23 15 7 12 20 13 9 6 14 19 21 21 21 20 20 27 29 29 30 31 30 29 27 25 24 24 22 22 21 21 18 16 15 13
9 22 17 23 26 27 28 30 28 23 21 21 7 12 20 11 6 12 17 18 19 20 21 20 20 20 26 29 29 30 29 30 28 26 26 25 24 23 23 21 20 18 16 14
9 17 23 20 22 23 29 28 28 28 19 20 17 3 12 10 10 16 18 19 20 20 20 20 19 17 23 26 26 27 28 29 28 28 28 27 26 26 24 22 22 19 18 16
10 17 23 28 25 24 27 30 28 30 25 25 20 24 31 14 12 15 18 18 20 19 21 20 19 17 22 25 25 27 27 29 29 29 29 28 27 26 24 23 22 20 18 16
9 15 21 25 26 23 25 30 31 28 29 27 23 22 23 10 13 14 17 19 20 20 21 21 20 19 19 26 28 29 29 30 30 30 30 28 28 26 25 23 22 20 17 13
11 13 18 22 24 26 22 28 31 28 28 27 26 17 25 27 14 16 13 18 19 20 20 20 21 20 26 30 32 31 31 30 31 29 29 28 27 26 26 24 23 21 24 25
10 8 11 16 20 28 12 19 21 27 26 27 23 22 21 12 13 12 16 17 18 19 20 20 19 22 29 30 32 31 31 31 31 30 29 29 28 27 25 25 25 24 30 24
15 9 7 13 18 14 21 20 19 24 27 26 25 25 17 19 11 13 13 14 20 20 18 18 26 26 25 29 30 33 31 32 32 33 33 32 30 28 27 28 27 27 27 25
17 13 10 9 17 28 18 21 14 16 18 21 25 23 24 17 16 12 16 11 10 10 16 17 27 27 28 29 31 31 31 32 34 36 36 33 32 32 31 29 28 27 27 23
17 14 15 12 9 12 17 19 20 19 9 10 15 14 16 16 13 14 11 10 14 14 15 18 21 21 28 32 32 31 33 34 42 33 33 34 35 33 29 27 28 30 26 23
20 13 12 14 12 15 11 6 1 7 9 12 12 3 15 16 18 16 16 16 11 14 13 16 16 18 22 26 32 32 33 42 31 30 31 31 30 29 27 29 30 31 26 25
17 18 11 14 14 7 13 12 14 13 12 12 12 11 11 11 16 20 18 16 16 14 10 15 16 17 20 25 32 32 42 30 31 31 31 31 30 29 28 32 32 29 29 26
11 5 17 10 19 13 9 12 14 15 13 13 13 15 13 11 13 15 13 16 16 14 13 20 19 16 20 26 32 38 27 30 31 31 31 30 30 29 27 31 32 29 29 28
4 11 12 10 15 10 11 12 15 16 15 16 16 15 14 14 15 15 15 14 14 14 17 19 16 18 21 23 27 27 28 32 33 32 31 30 29 32 30 28 31 29 30 31
3 6 4 5 10 9 11 14 15 17 16 18 19 19 18 16 16 16 16 14 14 15 17 14 17 17 19 22 24 26 28 32 33 31 31 32 31 30 30 29 24 24 26 29
Wind_Direction
214 229 231 231 234 256 14 279 286 179 151 200 242 258 158 171 185 180 187 189 197 199 183 187 196 187 183 186 183 187 186 181 180 188 194 194 201 194 195 191 106 13 25 15
225 222 231 238 240 249 161 254 272 276 133 225 266 221 183 171 194 185 188 191 196 196 189 197 192 193 192 188 189 189 191 186 193 196 207 209 213 189 218 172 189 205 340 352
224 226 223 234 235 244 241 250 233 235 157 230 255 262 244 168 189 200 187 186 197 200 187 191 195 196 195 192 193 191 194 193 197 204 192 193 202 238 218 198 205 165 282 341
230 229 223 223 235 233 241 222 264 286 266 268 184 266 237 174 189 197 192 189 191 198 188 190 195 196 197 198 195 195 196 198 200 201 198 200 213 223 184 183 160 201 261 326
228 227 227 218 228 228 238 245 223 236 256 255 209 238 250 169 188 195 199 193 194 193 196 189 194 193 200 198 197 198 196 201 205 202 212 204 221 218 219 218 160 235 249 230
246 224 224 226 220 228 229 241 230 240 247 252 248 256 242 183 184 195 192 194 194 189 195 197 190 192 198 200 198 196 195 201 205 206 208 216 217 226 239 207 236 247 257 251
223 238 216 228 230 222 227 225 220 228 231 245 272 211 202 341 148 178 183 191 189 188 190 191 186 191 194 198 197 197 193 200 208 210 212 211 215 217 227 234 236 261 270 265
219 217 225 206 229 220 220 226 220 218 231 232 170 238 243 197 141 152 175 181 184 189 187 188 186 189 191 195 195 197 193 200 207 210 211 211 212 218 225 229 238 243 254 264
212 230 206 219 217 226 216 225 228 248 273 267 64 264 211 167 199 175 187 169 181 186 184 186 188 187 189 192 194 196 194 199 206 208 208 208 210 217 222 232 215 237 245 257
241 228 225 202 216 219 235 204 224 240 245 231 289 295 208 190 205 176 213 169 175 180 182 182 187 185 190 191 192 196 197 199 203 205 205 206 208 212 221 223 227 236 245 245
238 247 217 201 204 210 216 224 217 235 238 190 225 243 175 167 185 76 187 166 170 178 181 179 185 183 190 189 192 195 197 197 201 203 202 203 206 210 214 222 228 233 236 236
243 237 239 217 201 220 215 217 226 224 236 251 270 289 227 146 141 167 175 158 168 179 181 176 182 179 186 190 192 193 196 197 198 199 202 201 205 208 214 219 224 227 226 224
287 234 225 238 199 206 224 219 222 226 235 236 171 245 260 131 131 158 152 160 167 177 179 174 180 176 183 190 190 193 194 198 196 196 201 205 207 209 213 216 220 222 217 215
293 261 237 216 213 203 206 227 214 230 218 231 209 115 290 140 133 152 151 161 169 180 175 173 179 173 180 188 187 191 191 196 194 196 202 206 206 209 213 212 216 216 210 205
241 251 240 241 231 206 203 215 218 222 229 227 243 146 252 123 120 151 151 162 170 180 176 173 178 173 178 185 187 191 193 196 194 195 202 205 205 209 210 209 213 210 204 202
288 258 249 240 245 246 216 203 222 218 225 236 216 248 201 96 116 156 156 170 175 184 182 178 180 179 184 185 188 190 196 194 195 196 201 203 202 204 205 207 204 200 194 196
287 257 240 237 232 241 237 210 208 222 220 225 231 216 262 154 161 151 175 176 185 186 186 187 188 184 189 190 190 191 194 195 197 199 199 199 199 200 201 202 202 191 178 190
264 288 276 230 232 232 220 229 216 219 229 230 233 228 232 247 172 164 172 184 189 194 196 195 192 194 196 196 195 196 194 196 196 199 200 198 196 199 198 199 200 189 183 181
232 255 242 232 228 229 228 231 228 212 219 231 224 241 229 215 236 180 210 181 185 194 201 201 204 203 197 200 198 198 196 195 198 200 201 198 196 194 196 198 196 186 174 176
215 220 257 242 239 221 221 219 227 239 243 217 229 230 245 230 224 217 211 196 199 223 201 204 202 205 197 205 200 198 204 199 202 203 200 197 195 195 197 195 190 179 176 185
200 209 215 227 249 254 204 213 210 225 223 280 238 242 253 258 251 250 220 226 222 219 222 213 211 207 206 199 200 203 202 207 210 202 198 197 196 194 192 186 181 169 178 182
194 194 205 224 217 231 14 343 1 359 0 358 2 271 246 242 261 261 258 248 256 208 222 205 212 217 214 203 199 207 208 213 203 198 196 193 190 186 187 182 170 171 176 171
196 201 200 208 214 89 66 32 16 0 352 351 333 336 338 315 253 234 253 245 254 257 230 230 221 214 216 209 207 208 217 203 196 191 189 184 180 181 184 173 166 169 173 179
225 265 223 225 223 249 21 33 357 337 340 330 318 311 313 304 299 298 291 240 242 245 237 239 230 222 211 211 210 216 208 201 190 186 181 177 176 178 174 168 169 179 181 187
341 310 219 231 38 332 61 6 343 331 329 324 317 309 299 294 292 288 281 281 283 240 239 242 228 220 223 209 208 208 204 195 189 184 180 178 182 180 167 169 175 192 196 194
98 317 355 48 25 348 341 339 332 326 328 342 317 308 303 289 276 275 271 269 265 254 245 229 239 224 224 206 201 199 201 192 188 185 183 183 181 174 171 175 182 202 193 197